Regional Weather Roundup
Issued by NWS Newport/Morehead, NC

Current Version | Previous Version | Graphics & Text | Print | Product List | Glossary On
Versions: 1 2 3 4 5 6 7 8 9 10 11 12 13 14 15 16 17 18 19 20 21 22 23 24 25 26 27 28 29 30 31 32 33 34 35 36 37 38 39 40 41 42 43 44 45 46 47 48 49 50
000 ASUS42 KMHX 310710 RWRMHX WEATHER ROUNDUP FOR EASTERN NORTH CAROLINA NATIONAL WEATHER SERVICE NEWPORT/MOREHEAD CITY NC 200 AM EST SAT JAN 31 2015 NOTE: "FAIR" INDICATES FEW OR NO CLOUDS BELOW 12,000 FEET WITH NO SIGNIFICANT WEATHER AND/OR OBSTRUCTIONS TO VISIBILITY NCZ015>017-031-032-045>047-102-103-310800- NORTH COAST CITY SKY/WX TMP DP RH WIND PRES REMARKS EDENTON CLEAR 30 11 45 NW9 30.26R ELIZABETH CITY CLEAR 28 11 48 NW13 30.26R WCI 17 KITTY HAWK SUNNY 30 11 46 NW9G22 30.21R MANTEO CLEAR 30 9 40 NW17G25 30.23S WCI 18 $$ NCZ045>047-081-094-103-104-310800- CENTRAL COAST CITY SKY/WX TMP DP RH WIND PRES REMARKS FRISCO CLEAR 33 15 47 NW15G28 30.22R SWANQUARTER NOT AVBL $$ NCZ095-097-098-100-101-310800- SOUTHERN COAST CITY SKY/WX TMP DP RH WIND PRES REMARKS BEAUFORT CLEAR 32 14 47 N17 30.27R CEDAR ISLAND NOT AVBL JACKSONVILLE CLEAR 31 12 45 NW12 30.29S PINEY ISLAND N/A N/A N/A N/A MISG 30.26R WILMINGTON CLEAR 32 12 43 N12 30.29S $$ NCZ011>013-027>030-043-044-078>080-089-090>093-098-310800- COASTAL PLAIN CITY SKY/WX TMP DP RH WIND PRES REMARKS AHOSKIE CLEAR 27 10 49 CALM 30.29R CLINTON CLEAR 32 13 45 N6 30.31S ELIZABETHTOWN PTCLDY 31 11 42 CALM 30.31S GOLDSBORO CLEAR 38 12 34 NW14G23 30.21R GREENVILLE CLEAR 30 12 47 NW3 30.30S HAVELOCK CLEAR 32 12 43 NW15 30.29R KENANSVILLE CLEAR 30 11 44 NW3 30.31S KINSTON CLEAR 30 13 49 NW6 30.30S NEW BERN CLEAR 32 12 43 NW7 30.29S RICHLANDS CLEAR 30 10 43 W3 30.30S ROCKY MOUNT N/A 28 11 48 NW6 30.30S WASHINGTON CLEAR 29 11 46 CALM 30.29R WHITEVILLE CLEAR 32 13 44 CALM 30.31R $$ AMZ130-135-150-152-154-156-158-170-250-252-270-ANZ085-086-088-633-658-670-310800- MARINE OBSERVATIONS STATION/POSITION TIME TEMP WIND PRES WAVE SWELL AIR SEA DIR/SP/G HT/PER HT/PER (UTC) (F) (DEG/KT/KT) (MB) (FT/S) (FT/S) CHESAPEAKE LIGHT 0600 28 320/ 34/ 38 1022.8 64 E VA BEACH 0700 32 48 330/ 31/ 37 1020.0 11/ 8 2/15 DUCK 0700 30 42 330/ 29/ 35 1022.0 2 E DUCK 0700 43 N/A 6/ 7 10 NE DUCK 0700 44 N/A 8/ 7 OREGON INLET 0700 31 41 310/ 18/ 25 1022.9 13E OREGON INLT 0700 45 N/A 9/ 8 2/11 HATTERAS CG 0700 34 43 320/ 25/ 30 1023.5 DIAMOND BUOY 0700 38 69 320/ 25/ 33 1022.0 8/ 9 3/ 9 17 S OCRACOKE NOT AVBL CAPE LOOKOUT 0600 36 340/ 21/ 25 1024.0 BEAUFORT LAB 0700 34 46 340/ 13/ 19 1024.0 27 SE WRIGHTSVLE NOT AVBL 5 SE WRIGHTSVLE 0600 39 51 340/ 17/ 21 1025.1 225 S CAPE HAT 0554 57 71 320/ 23/ 31 1019.6 13/ 9 41 SE CHARLESTON 0700 51 68 360/ 23/ 29 1024.1 7/ 6 2/11 $$

USA.gov is the U.S. government's official web portal to all federal, state and local government web resources and services.